ONEWEB-0707, 61612

Orbit data source: Space-Track

ONEWEB-0707, 61612 is a payload satellite owned by Eut. One Web (UK) in LEO that was launched on Sun, 20 Oct 2024 UTC via an FALCON 9 launch vehicle from the Air Force Western Test Range (AFWTR). Payload-class satellites include a variety of spacecraft equipped with specific instruments for various scientific and technological missions. These include communications satellites like Starlink; space stations such as the ISS; scientific satellites like the Hubble; Earth observation satellites from companies like Planet Labs, Umbra, and HawkEye 360; GPS; miniature CubeSats for education and research; and military/defense satellites.

Loading next visibility...
Identifier
61612, 2024-188U
Orbit
LEO
Last TLE update
12 hours ago
Origin
Manufacturer
One Web
Mission
Operational Commercial Communications
Bus & Motor
ARROW, Unknown motor
Mass
148 kg wet, ~140 kg dry
Launch date (UTC)
2024-10-20 (9 months ago)
Launch vehicle
FALCON 9
Launch site
Air Force Western Test Range (AFWTR)
Object type
Payload
Rocket body
Debris
Shape & HBR
Trap Box + 2 Pan, 5 m
Radar Cross Section
2.032 m², Large (>1 m²)

Expand to show TLE details & history

TLE from 12 hours ago
0 ONEWEB-0707
1 61612U 24188U   25191.51901574  .00000648  00000-0  18187-2 0  9994
2 61612  87.8816 104.3782 0002169  60.5591 299.5753 13.10374342 38576
Epoch: 2025-07-10T12:27Z
TLE epoch observation values (Epoch: 2025-07-10T12:27:22.959Z)
Latitude
-0.00001°
Longitude
-11.1516°
Altitude
1,223.785 km
Speed
7.243 km/s
True Right ascension
06h 57m 30s
True Declination
0° 00' 00"
Sunlit
Object was in daylight at epoch
Visualization orbit readout
Latitude
25.91043°
Longitude
167.72621°
Altitude
1,224.993 km
Speed
7.244 km/s
Apparent Right ascension
21h 07m 34s
Apparent Declination
-4° 58' 15"
Sunlit
Object is in full shadow
Visualization observer readout
Local Sidereal Time
12:30:19
Azimuth
66.29° ENE
Elevation
-32.662°
Doppler factor
1
Orbital elements
Apogee altitude
1,220.479 km
Perigee altitude
1,217.183 km
Semi-major axis
7,596.968 km
Eccentricity
0.00022
Inclination
87.8816°
RAAN
104.3782°
Arg. of periapsis
60.5591°
True anomaly
Unknown
Mean anomaly
299.5753°
Eccentric anomaly
Unknown
Mean motion
3.2778 °/min
Orbital period
109.83 mins
BSTAR
0.0018187
Loading maneuver chart data...
Loading SW <> Apogee altitude chart data...
Loading historical data...
Loading historical data...
Loading historical data...
Loading historical data...
Loading historical data...
Loading historical data...
Loading historical data...

ONEWEB-0707 Visibility forecast

Observer location: undefined°, undefined°

Span
Click to sort rows by Start time (UTC) header in descending order
Start Az.
Max El. time (UTC)
Max El. Az.
Max El.
End time (UTC)
End Az.
13 mins2025-07-11 05:33:07.723Z15.838° NNE2025-07-11 05:39:07.723Z75.137° E32.325°2025-07-11 05:46:07.723Z148.83° SSE
11 mins2025-07-11 07:24:07.723Z337.483° NNW2025-07-11 07:29:07.723Z283.686° WNW30.986°2025-07-11 07:35:07.723Z219.391° SW
11 mins2025-07-11 17:54:07.723Z143.639° SSE2025-07-11 17:59:07.723Z79.678° E35.007°2025-07-11 18:05:07.723Z15.668° NNE
11 mins2025-07-11 19:44:07.723Z225.82° WSW2025-07-11 19:49:07.723Z280.622° WNW28.426°2025-07-11 19:55:07.723Z340.076° N
|